Tracking 30157 objects as of 13-Feb-2025
HD Live streaming from Space Station
objects crossing your sky now

USA 447

Track USA 447 now!
10-day predictions


NORAD ID: 62346
Int'l Code: 2024-243G
Perigee: 582.8 km
Apogee: 585.6 km
Inclination: 70.0 °
Period: 96.2 minutes
Semi major axis: 6955 km
RCS: Unknown
Launch date: December 17, 2024
Source: United States (US)
Launch site: AIR FORCE WESTERN TEST RANGE (AFWTR)
Your satellite tracking list
Your tracking list is empty




NASA's NSSDC Master Catalog

Two Line Element Set (TLE):
1 62346U 24243G   25039.11755917 0.00000000  00000-0  00000-0 0    04
2 62346  70.0000  84.1655 0002000 154.4509 205.5491 14.96715556    04
Source of the keplerian elements: McCants